Tracking 27380 objects as of 5-Jun-2023
HD Live streaming from Space Station
objects crossing your sky now

ZHUHAI-1 03E

Track ZHUHAI-1 03E now!
10-day predictions


NORAD ID: 44539
Int'l Code: 2019-060F
Perigee: 467.2 km
Apogee: 476.5 km
Inclination: 97.5 °
Period: 93.9 minutes
Semi major axis: 6842 km
RCS: Unknown
Launch date: September 19, 2019
Source: People's Republic of China (PRC)
Launch site: Jiuquan Satellite Launch Center, China (JSC)
Your satellite tracking list
Your tracking list is empty




NASA's NSSDC Master Catalog

Two Line Element Set (TLE):
1 44539U 19060F   23156.54227779  .00019492  00000-0  59895-3 0  9995
2 44539  97.4833 271.8611 0006795 279.4595  80.5879 15.33723898205996
Source of the keplerian elements: AFSPC